Regional Weather Roundup
Issued by NWS

Home | Current Version | Previous Version | Graphics & Text | Print | Product List | Glossary On
Versions: 1 2 3 4 5 6 7 8 9 10 11 12 13 14 15 16 17 18 19 20 21 22 23 24 25 26 27 28 29 30 31 32 33 34 35 36 37 38 39 40 41 42 43 44 45 46 47 48 49 50
880
ASUS43 KLMK 040010
RWRKY
KENTUCKY REGIONAL WEATHER ROUNDUP
NATIONAL WEATHER SERVICE LOUISVILLE KY
700 PM EST SAT DEC 03 2016

NOTE "FAIR" INDICATES FEW OR NO CLOUDS BELOW 12,000 FEET
WITH NO SIGNIFICANT WEATHER AND/OR OBSTRUCTIONS TO VISIBILITY.

KYZ001>023-026-027-061>063-070>075-040100-
WESTERN AND SOUTH CENTRAL KENTUCKY

CITY           SKY/WX    TMP DP  RH WIND       PRES   REMARKS
PADUCAH        CLOUDY    43  30  60 NE6       30.28R
HENDERSON      CLOUDY    41  28  60 E6        30.30R
OWENSBORO      CLOUDY    42  30  62 E3        30.31R
HOPKINSVILLE   CLOUDY    41  33  73 NE5       30.27R
BOWLING GREEN  CLOUDY    42  33  70 NE3       30.29S
GLASGOW        CLOUDY    40  33  75 NE3       30.27S
$$

KYZ024-025-028>034-038-045-046-053-040100-
NORTH CENTRAL KENTUCKY

CITY           SKY/WX    TMP DP  RH WIND       PRES   REMARKS
LOUISVILLE/SDF CLOUDY    42  27  55 NE6       30.30R
LOUISVILLE/LOU CLOUDY    42  28  57 NE6       30.31R
FORT KNOX      CLOUDY    40  29  65 N1        30.28R
$$

KYZ035>037-039>044-047>052-055>060-089>105-040100-
NORTHEAST KENTUCKY

CITY           SKY/WX    TMP DP  RH WIND       PRES   REMARKS
LEXINGTON      MOCLDY    39  29  67 NE6       30.29S WCI  35
COVINGTON      CLOUDY    38  29  70 NW6       30.30S WCI  33
FRANKFORT      CLOUDY    41  28  60 NE3       30.29R
$$

KYZ054-064>069-076>088-106>120-040100-
SOUTHEAST KENTUCKY

CITY           SKY/WX    TMP DP  RH WIND       PRES   REMARKS
JACKSON        CLOUDY    38  28  67 CALM      30.27F
LONDON         CLOUDY    39  28  64 NE3       30.27S
SOMERSET       MOCLDY    37  30  75 CALM      30.29S
MIDDLESBORO    CLOUDY    40  32  74 CALM      30.27S
MONTICELLO     CLOUDY    39  32  76 W7        30.29R WCI  34
$$





USA.gov is the U.S. government's official web portal to all federal, state and local government web resources and services.